Challenge des Corridas Hivernales

Saint-Nicolas Est Un Joggeur ! - Rulles (5.40 km)

vendredi 29 novembre 2019

Le classement original se trouve sur : http://ultratiming.be/
CHALLENGE DES CORRIDAS HIVERNALES
SAINT-NICOLAS EST UN JOGGEUR ! - RULLES
DISTANCE : 5.39 km
vendredi 29 novembre 2019
 
Place dos NOM Catégorie Pl/cat temps temps/km Vitesse
1 400 CARA RÉMI SEH 1 00:20:05 03:44 16.10
2 428 ANTOINE YANNICK V2H 1 00:20:34 03:49 15.72
3 308 DE CONINCK TIMOTHÉE SEH 2 00:20:44 03:51 15.60
4 189 LEQUEUX FLORIAN SEH 3 00:21:04 03:55 15.35
5 160 RAMSPACHER JULIEN V1H 1 00:21:05 03:55 15.34
6 306 LEJEUNE DAMIEN SEH 4 00:21:15 03:57 15.22
7 354 BALON ARNAUD SEH 5 00:21:20 03:58 15.16
8 453 DELAISSE ROMAIN SEH 6 00:21:32 04:00 15.02
9 114 KIMUS DAVID SEH 7 00:21:35 04:00 14.98
10 423 BALON PASCAL V1H 2 00:21:36 04:00 14.97
11 86 PUFFET STANY SEH 8 00:21:41 04:01 14.91
12 98 PIERRARD RÉMY SEH 9 00:21:43 04:02 14.89
13 179 THIRY LÉNAÏC SEH 10 00:21:47 04:03 14.84
14 455 COLLET AMAURY SEH 11 00:21:50 04:03 14.81
15 111 BOUSCHET TRISTAN SEH 12 00:21:58 04:05 14.72
16 399 CARA BORIS SEH 13 00:21:59 04:05 14.71
17 355 DREZEN MAXIME SEH 14 00:22:05 04:06 14.64
18 315 PERRAD CHRISTOPHE SEH 15 00:22:07 04:06 14.62
19 338 BRANDERS ANGE SEF 1 00:22:08 04:06 14.61
20 97 GUILLAUME BRYAN SEH 16 00:22:09 04:07 14.60
21 331 GOOSSE MICHAEL SEH 17 00:22:16 04:08 14.52
22 91 VAN CANTFORT DYLAN SEH 18 00:22:20 04:09 14.48
23 136 CHAIDRON AURELIEN SEH 19 00:22:21 04:09 14.47
24 78 BRAUX BASTIEN SEH 20 00:22:27 04:10 14.40
25 127 WILKIN WILKIN SEH 21 00:22:27 04:10 14.40
26 206 RACZ MALKO SEH 22 00:22:32 04:11 14.35
27 205 JACQUEMIN RÉMY SEH 23 00:22:33 04:11 14.34
28 2102 LAVAL SALINAS ESTEBAN JEUH 1 00:22:41 04:13 14.25
29 363 CUVELIER FABIEN V1H 3 00:22:42 04:13 14.24
30 77 DION LOUIS JEUH 2 00:22:43 04:13 14.23
31 2024 GILLET DAVID V2H 2 00:22:50 04:14 14.16
32 357 LEMAIRE NANCY V1F 1 00:22:54 04:15 14.12
33 325 THIRY MATHYS JEUH 3 00:22:57 04:16 14.09
34 2017 DELAFONTAINE NOAH JEUH 4 00:22:57 04:16 14.09
35 2016 DELAFONTAINE LIAM JEUH 5 00:22:58 04:16 14.08
36 451 BODEN PIERRE-EDOUARD SEH 24 00:23:00 04:16 14.06
37 135 GERARD LUDOVIC SEH 25 00:23:01 04:16 14.05
38 370 CARVELA MARCIO V1H 4 00:23:01 04:16 14.05
39 579 LAHURE ROMAIN JEUH 6 00:23:05 04:17 14.01
40 385 DOYEN BENJAMIN SEH 26 00:23:10 04:18 13.96
41 371 KERGER SÉBASTIEN V1H 5 00:23:14 04:19 13.92
42 427 ARNOULD LORIS JEUH 7 00:23:15 04:19 13.91
43 130 CAILTEUX GUILLAUME SEH 27 00:23:19 04:20 13.87
44 208 CHAIDRON FLORIAN SEH 28 00:23:20 04:20 13.86
45 79 DEWEZ ANTOINE SEH 29 00:23:21 04:20 13.85
46 2043 QUIBUS JEAN-LUC SEH 30 00:23:23 04:20 13.83
47 452 MARCHAL MATHIS SEH 31 00:23:28 04:21 13.78
48 412 LOTHAIRE MAXENCE JEUH 8 00:23:35 04:23 13.71
49 48 MONHONVAL ALEXIS JEUH 9 00:23:37 04:23 13.69
50 364 THILTGEN JEAN-FRANÇOIS V1H 6 00:23:41 04:24 13.65
51 164 RATY BASTIEN JEUH 10 00:23:43 04:24 13.63
52 345 ENGLEBERT THIERRY V1H 7 00:23:45 04:24 13.61
53 2038 LUFFIN DIDIER V2H 3 00:23:50 04:25 13.57
54 578 LAHURE DIDIER V1H 8 00:23:51 04:26 13.56
55 105 MINE VICTOR JEUH 11 00:23:53 04:26 13.54
56 332 ROLLES KEVIN SEH 32 00:23:56 04:26 13.51
57 334 DEVOLF THÉODORE JEUH 12 00:23:57 04:27 13.50
58 64 L'EMPEREUR AUGUSTIN JEUH 13 00:24:01 04:27 13.46
59 462 HOTTIAS HADRIEN SEH 33 00:24:02 04:28 13.45
60 367 VIEUXTEMPS MAXIME SEH 34 00:24:05 04:28 13.43
61 302 SENSIQUE NOLAN JEUH 14 00:24:11 04:29 13.37
62 73 LAMBERT STEPHANE V1H 9 00:24:16 04:30 13.32
63 374 GANGLER JONATHAN SEH 35 00:24:18 04:31 13.31
64 173 MENACER ARMAND SEH 36 00:24:18 04:31 13.31
65 2027 GUEBELS COLIN SEH 37 00:24:20 04:31 13.29
66 118 PIERRARD CHRISTOPHE SEH 38 00:24:35 04:34 13.15
67 458 RACELLE VINCENT V1H 10 00:24:36 04:34 13.14
68 384 OGER XAVIER SEH 39 00:24:43 04:35 13.08
69 137 BAUDSON NICOLAS SEH 40 00:24:43 04:35 13.08
70 107 SCHWALL CASSIAN JEUH 15 00:24:45 04:36 13.06
71 92 SIBRET AURELIEN SEH 41 00:24:48 04:36 13.04
72 123 LECOMTE THOMAS SEH 42 00:24:49 04:36 13.03
73 381 LIEGEOIS CLARA JEUF 1 00:24:50 04:36 13.02
74 2006 BEAUGEON LOIC SEH 43 00:24:52 04:37 13.00
75 51 VANDEN PLAS SACHA JEUH 16 00:24:52 04:37 13.00
76 175 DELRUE MAXIME V1H 11 00:24:55 04:37 12.98
77 352 LHERMITTE THOMAS SEH 44 00:24:57 04:38 12.96
78 425 BASTIN PHILIPPE SEH 45 00:25:00 04:38 12.93
79 204 SAINT GUILLAIN ARNAUD SEH 46 00:25:02 04:39 12.92
80 300 SENSIQUE NICOLAS V1H 12 00:25:05 04:39 12.89
81 46 BARTHAUX SÉBASTIEN V1H 13 00:25:07 04:40 12.87
82 156 GROSS JACKY V2H 4 00:25:09 04:40 12.86
83 177 BOUS MATHIEU SEH 47 00:25:09 04:40 12.86
84 403 DELAIT OLIVIER V2H 5 00:25:10 04:40 12.85
85 434 LEQUEUX SIMON SEH 48 00:25:11 04:40 12.84
86 328 BOURGUIGNON LAURENT V2H 6 00:25:11 04:40 12.84
87 361 BARTHAUX BENOIT V1H 14 00:25:12 04:41 12.83
88 24 DEVOLF JUSTIN JEUH 17 00:25:14 04:41 12.81
89 335 RATY AMELIE SEF 2 00:25:14 04:41 12.81
90 438 TRINIANE NOE SEH 49 00:25:18 04:42 12.78
91 2018 DELMEE EVE JEUF 2 00:25:19 04:42 12.77
92 390 VAN DER OUDERAA NICOLAS SEH 50 00:25:21 04:42 12.76
93 159 MINET NOËL V1H 15 00:25:22 04:42 12.75
94 49 PLAINCHAMP GWENAELLE V1F 2 00:25:26 04:43 12.71
95 128 MARCHAL THOMAS SEH 51 00:25:27 04:43 12.70
96 411 ADAM SÉBASTIEN V1H 16 00:25:31 04:44 12.67
97 365 PLIER CHRISTOPHE V2H 7 00:25:32 04:44 12.66
98 344 LOBET DENIS SEH 52 00:25:33 04:44 12.66
99 2104 LAVAL SALINAS ANDREA JEUF 3 00:25:35 04:45 12.64
100 54 GEORGE MATHIAS SEH 53 00:25:37 04:45 12.62
101 27 BODEUX LÉON JEUH 18 00:25:37 04:45 12.62
102 347 WELVAERT JULES V3H 1 00:25:39 04:46 12.61
103 2035 LESLIE FRANCOIS SEH 54 00:25:40 04:46 12.60
104 416 LECLER FLORENT V1H 17 00:25:43 04:46 12.57
105 88 FAUTRÉ JULIE SEF 3 00:25:46 04:47 12.55
106 2049 STEIOFF STÉPHANE SEH 55 00:25:48 04:47 12.53
107 456 FENA ANTOINE SEH 56 00:25:52 04:48 12.50
108 376 LEGRAND SÉBASTIEN V1H 18 00:25:53 04:48 12.49
109 158 COUQUELET ISABELLE V1F 3 00:25:54 04:48 12.48
110 430 PONCELET ANTHONY V2H 8 00:25:57 04:49 12.46
111 2103 LAVAL FRÉDÉRIC V1H 19 00:25:58 04:49 12.45
112 435 ANTOINE MARTIN SEH 57 00:25:59 04:49 12.44
113 388 MORIS KEVIN SEH 58 00:26:00 04:49 12.44
114 84 CLAUSSE PIERRICK SEH 59 00:26:03 04:50 12.41
115 369 JEAN CLAUDE V2H 9 00:26:03 04:50 12.41
116 356 DREZEN LOUIS JEUH 19 00:26:04 04:50 12.40
117 43 SCAILLET SEVERINE V1F 4 00:26:15 04:52 12.32
118 4 CLÉMENT RATHS JEUH 20 00:26:16 04:52 12.31
119 109 DENAYER CLOTHILDE SEF 4 00:26:18 04:53 12.29
120 108 GIROUD OLIVIER SEH 60 00:26:19 04:53 12.29
121 2050 THIRY DANY V2H 10 00:26:19 04:53 12.29
122 153 TRIBOLET CELINE SEF 5 00:26:22 04:54 12.26
123 301 FRANÇOIS MARILYN V1F 5 00:26:23 04:54 12.26
124 187 MARCHAL OLIVIER V1H 20 00:26:27 04:54 12.22
125 577 JEMINE GABRIEL JEUH 21 00:26:28 04:55 12.22
126 2051 THIRY ELIAN JEUH 22 00:26:30 04:55 12.20
127 21 MARECHAL QUENTIN JEUH 23 00:26:30 04:55 12.20
128 60 HALLEUX GUILLAUME JEUH 24 00:26:34 04:56 12.17
129 340 BIGONVILLE THIERRY V3H 2 00:26:37 04:56 12.15
130 461 ROISEUX KAREN SEF 6 00:26:37 04:56 12.15
131 591 REYDAMS AUBIN JEUH 25 00:26:39 04:57 12.13
132 75 ANTOINE NOAH JEUH 26 00:26:40 04:57 12.13
133 157 RENARD JEAN PHILIPPE V2H 11 00:26:43 04:57 12.10
134 55 BENKHADDA ADAM JEUH 27 00:26:47 04:58 12.07
135 62 HOULMONT JEANPOL V3H 3 00:26:47 04:58 12.07
136 405 MINSIER CELIEN JEUH 28 00:26:51 04:59 12.04
137 203 CROCHET ERWANN SEH 61 00:26:56 05:00 12.01
138 383 ADAM FLAVIO JEUH 29 00:26:57 05:00 12.00
139 319 COPPIN CLEMENT SEH 62 00:26:58 05:00 11.99
140 44 GÉRARD MICHAËL V1H 21 00:26:58 05:00 11.99
141 134 TINANT ROMAIN SEH 63 00:26:59 05:00 11.98
142 322 JACOB DIDIER V2H 12 00:27:03 05:01 11.95
143 318 TOULEMONDE EMELINE JEUF 4 00:27:04 05:01 11.95
144 63 PONCELET STÉPHANIE V1F 6 00:27:06 05:02 11.93
145 65 L'EMPEREUR PHILIPPE V1H 22 00:27:07 05:02 11.92
146 409 ADAM EVAN JEUH 30 00:27:10 05:02 11.90
147 437 LOUPPE ARNAUD SEH 64 00:27:12 05:03 11.89
148 178 WAGNER GILLES V1H 23 00:27:17 05:04 11.85
149 339 LAMORT EMY JEUF 5 00:27:17 05:04 11.85
150 2054 TRAN XUAN-MAI V1F 7 00:27:20 05:04 11.83
151 351 TARNUS NOÉMIE SEF 7 00:27:22 05:05 11.82
152 386 TINANT CHLOÉ SEF 8 00:27:22 05:05 11.82
153 2052 THIRY VIVIEN V1H 24 00:27:27 05:06 11.78
154 312 WIDART JEAN V3H 4 00:27:32 05:07 11.74
155 366 PLIER CHIARA JEUF 6 00:27:34 05:07 11.73
156 314 GODENIR CHRISTIAN V2H 13 00:27:34 05:07 11.73
157 304 OGER MICHEL V2H 14 00:27:35 05:07 11.72
158 50 CLAUSSE KENNY JEUH 31 00:27:36 05:07 11.72
159 36 BRACONNIER STEPHANE V1H 25 00:27:36 05:07 11.72
160 182 SALMON TOM SEH 65 00:27:39 05:08 11.69
161 379 HENRY EDWIN SEH 66 00:27:42 05:08 11.67
162 2 THERER ELOISE SEF 9 00:27:43 05:09 11.67
163 394 ALBERT VINCENT SEH 67 00:27:45 05:09 11.65
164 5 AGOSTINI ANTOINE V3H 5 00:27:51 05:10 11.61
165 102 RICHARD MIGUEL -1 1 00:27:52 05:10 11.60
166 161 RAMSPACHER AURÉLIEN JEUH 32 00:27:53 05:10 11.60
167 393 MOHNEN CELINE V2F 1 00:27:53 05:10 11.60
168 85 VAN GOI KYLLIAN SEH 68 00:27:55 05:11 11.58
169 311 MEINGUET MANON JEUF 7 00:27:57 05:11 11.57
170 162 RAULET LAURIANNE SEF 10 00:27:58 05:11 11.56
171 2011 DASNOY FREDDY V3H 6 00:28:00 05:12 11.55
172 382 LIÉGEOIS THIBAULT JEUH 33 00:28:06 05:13 11.51
173 2112 GARDEY NATHALIE V2F 2 00:28:10 05:14 11.48
174 310 GAUJARD MICHAEL SEH 69 00:28:11 05:14 11.47
175 74 GLORIEUX FRANCOIS SEH 70 00:28:12 05:14 11.47
176 465 BRAHAM MEHDI V1H 26 00:28:13 05:14 11.46
177 406 RANSON PAULINE SEF 11 00:28:13 05:14 11.46
178 380 LOMMEL THOMAS SEH 71 00:28:13 05:14 11.46
179 17 NICOLAS JULIE SEF 12 00:28:16 05:15 11.44
180 421 TOUILLAUX DOMINIQUE V2H 15 00:28:18 05:15 11.43
181 415 ROTA SYLVAIN V1H 27 00:28:19 05:15 11.42
182 566 COP JEAN-CLAUDE V2H 16 00:28:20 05:15 11.41
183 61 KOSOWSKI ALINE V1F 8 00:28:21 05:16 11.41
184 42 DARDAR STEPHANIE V1F 9 00:28:23 05:16 11.39
185 95 XXX XXX   00:28:23 05:16 11.39
186 35 BRACONNIER ETHAN JEUH 34 00:28:25 05:16 11.38
187 396 DOBBELAERE ROMAN SEH 72 00:28:25 05:16 11.38
188 410 LATRAN QUINTIA V1F 10 00:28:27 05:17 11.37
189 350 PIERRARD MATHIEU SEH 73 00:28:32 05:18 11.33
190 47 OUNDJEDE LEXANE JEUF 8 00:28:34 05:18 11.32
191 138 BRACHER AMAURY SEH 74 00:28:41 05:19 11.27
192 2045 ROMAN CHRISTABEL V2F 3 00:28:44 05:20 11.25
193 588 PIERSON PATRICK V1H 28 00:28:46 05:20 11.24
194 359 DAUTUN LOU-ANNE JEUF 9 00:28:47 05:20 11.23
195 368 JEAN AGLAË SEF 13 00:28:48 05:21 11.23
196 30 PIERRE MATTEO SEF 14 00:28:49 05:21 11.22
197 29 STASSER JULIEN SEH 75 00:28:54 05:22 11.19
198 424 LEMAIRE GUY V3H 7 00:28:57 05:22 11.17
199 176 REUTER VALERIE V1F 11 00:28:58 05:23 11.16
200 329 GOUJARD MATTHIEU JEUH 35 00:29:01 05:23 11.14
201 188 BERTRAND ANTOINE SEH 76 00:29:02 05:23 11.14
202 194 VAN QUAETHEM GIL SEH 77 00:29:02 05:23 11.14
203 58 DAMIEN FRANCOIS XXX   00:29:03 05:23 11.13
204 373 MAYOT LOUIS JEUH 36 00:29:09 05:25 11.09
205 450 MARTIN GAUTHIER SEH 78 00:29:11 05:25 11.08
206 330 GOUJARD STEPHANE V1H 29 00:29:12 05:25 11.07
207 429 DELCORDE THIBAULT SEH 79 00:29:13 05:25 11.07
208 122 YERNAUX MORGAN V1H 30 00:29:14 05:25 11.06
209 457 BOEUR MÉLANIE SEF 15 00:29:16 05:26 11.05
210 2012 DASNOY PRISCILLIA SEF 16 00:29:21 05:27 11.02
211 444 MAUER GEOFFREY SEH 80 00:29:32 05:29 10.95
212 40 CORMAN THIERRY V1H 31 00:29:36 05:30 10.92
213 154 LIBION MARC V2H 17 00:29:40 05:30 10.90
214 18 GÉRARD FRANÇOISE V1F 12 00:29:40 05:30 10.90
215 66 L'EMPEREUR JULIA JEUF 10 00:29:41 05:30 10.89
216 422 HALLET NADINE V2F 4 00:29:49 05:32 10.84
217 120 GEORGES QUENTIN SEH 81 00:29:56 05:33 10.80
218 317 DEVILLET SERGE V3H 8 00:29:58 05:34 10.79
219 336 BOULANGER ANNE V1F 13 00:30:06 05:35 10.74
220 81 DIEZ ROBIN JEUH 37 00:30:07 05:35 10.74
221 68 LAURENT CÉDRIC SEH 82 00:30:09 05:36 10.72
222 2020 DUBOIS FLORETTE SEF 17 00:30:11 05:36 10.71
223 441 JACOB JEAN-JULIEN SEH 83 00:30:13 05:36 10.70
224 3 CUVELIER LOUISE JEUF 11 00:30:15 05:37 10.69
225 2040 MCGIRR CATHERINE V2F 5 00:30:19 05:38 10.67
226 26 BODEUX ULYSSE JEUH 38 00:30:19 05:38 10.67
227 1 RATHS CHLOÉ JEUF 12 00:30:19 05:38 10.67
228 391 FROGNET DANY V3H 9 00:30:25 05:39 10.63
229 581 LECOT DAMIEN V1H 32 00:30:29 05:39 10.61
230 326 THIRY ROMANE JEUF 13 00:30:31 05:40 10.60
231 2037 LIBOIS RAPHAËL V2H 18 00:30:31 05:40 10.60
232 446 DUBOIS THIERRY SEH 84 00:30:33 05:40 10.58
233 15 RIES NATHAN SEH 85 00:30:35 05:41 10.57
234 2023 GASPARD LAURENCE V1F 14 00:30:37 05:41 10.56
235 16 ORBAN MANUEL SEH 86 00:30:38 05:41 10.56
236 596 THOLL CELINE V1F 15 00:30:39 05:41 10.55
237 2025 GILLOT LAURA SEF 18 00:30:41 05:42 10.54
238 8 COLLOT GUY V2H 19 00:30:44 05:42 10.52
239 585 OGER SOPHIE V1F 16 00:30:44 05:42 10.52
240 582 MERGEN PIERRE V1H 33 00:30:45 05:42 10.52
241 181 THIRY JADE JEUF 14 00:30:46 05:43 10.51
242 19 MUNSTER EUGENIE JEUF 15 00:30:47 05:43 10.50
243 333 CORNET SOPHIE V2F 6 00:30:49 05:43 10.49
244 341 RENAULD GÉRALDINE V1F 17 00:30:54 05:44 10.46
245 32 LABORNE JUSTIN JEUH 39 00:30:58 05:45 10.44
246 431 DIEZ ANNE SOPHIE V1F 18 00:30:58 05:45 10.44
247 418 HAUMONT ADRIEN SEH 87 00:30:59 05:45 10.44
248 31 LABORNE DAVID V1H 34 00:30:59 05:45 10.44
249 440 WILKOWSKI LAURA SEF 19 00:31:00 05:45 10.43
250 401 JACQUEMART LISE SEF 20 00:31:02 05:46 10.42
251 447 PROTIN LAURENCE V2F 7 00:31:04 05:46 10.41
252 2041 PAQUOT SANDRINE V1F 19 00:31:05 05:46 10.40
253 360 NICOLAS SANDRA V1F 20 00:31:05 05:46 10.40
254 593 ROLET JACQUES V3H 10 00:31:08 05:47 10.39
255 432 GRANDHENRY NOAH JEUH 40 00:31:08 05:47 10.39
256 565 CANIVET ERIC V2H 20 00:31:09 05:47 10.38
257 96 DEFOIN CHRISTIAN V3H 11 00:31:14 05:48 10.35
258 37 THÉRER AYLAN JEUH 41 00:31:21 05:49 10.31
259 375 LOUIS ARNAUD SEH 88 00:31:24 05:50 10.30
260 38 THERER ROMAIN V1H 35 00:31:24 05:50 10.30
261 398 CLAUDY FLORENT SEH 89 00:31:29 05:51 10.27
262 2021 FINEUSE EMILE V3H 12 00:31:33 05:51 10.25
263 52 JACOB JULIE SEF 21 00:31:33 05:51 10.25
264 408 CORNET SIMON SEH 90 00:31:34 05:51 10.24
265 20 COUVERT JACQUES V3H 13 00:31:36 05:52 10.23
266 324 HUSSON SOPHIE V1F 21 00:31:38 05:52 10.22
267 413 NOEL FRANCK V2H 21 00:31:39 05:52 10.22
268 93 LAMPSON YANNICK V2H 22 00:31:40 05:53 10.21
269 414 NOEL GERALD V1H 36 00:31:41 05:53 10.21
270 2026 GOFFIN JULIEN V1H 37 00:31:41 05:53 10.21
271 2029 HERMANN CHRISTELLE SEF 22 00:31:42 05:53 10.20
272 572 FLAMANT FRANCIS V3H 14 00:31:44 05:53 10.19
273 119 OGZR VERONIQUE V2F 8 00:31:51 05:55 10.15
274 101 GRIDAINE LISA JEUF 16 00:31:51 05:55 10.15
275 2010 BOUCHARD CAROLINE V2F 9 00:31:57 05:56 10.12
276 100 COLBACK MARION JEUF 17 00:31:59 05:56 10.11
277 76 COLLARD CLAUDY V3H 15 00:31:59 05:56 10.11
278 67 RAULET STÉPHANIE V1F 22 00:32:02 05:57 10.09
279 362 TOULEMONDE HERVE V2H 23 00:32:03 05:57 10.09
280 320 PIERSON ELINE JEUF 18 00:32:07 05:58 10.07
281 426 DEFOIN FLORIE SEF 23 00:32:08 05:58 10.06
282 121 VALET SABRINA V1F 23 00:32:12 05:59 10.04
283 337 CHAMPAGNE ALEXANDRA JEUF 19 00:32:15 05:59 10.03
284 180 VANDELOISE FRANÇOIS SEH 91 00:32:15 05:59 10.03
285 150 DESSÉ MARION JEUF 20 00:32:16 05:59 10.02
286 463 TESSE VINCENT SEH 92 00:32:21 06:00 10.00
287 209 LEFEVRE INDIA SEF 24 00:32:21 06:00 10.00
288 129 LEROY NICOLE V2F 10 00:32:21 06:00 10.00
289 2005 BAAR PIERRE V3H 16 00:32:22 06:00 9.99
290 466 GOFFLOT KEVIN SEH 93 00:32:23 06:01 9.98
291 2004 AUTHELET MARIE SEF 25 00:32:29 06:02 9.95
292 323 ARNOULD AURELIE V1F 24 00:32:32 06:02 9.94
293 321 QUARTICELLI ILARIA V1F 25 00:32:32 06:02 9.94
294 309 CHARNEUX YSALINE JEUF 21 00:32:34 06:03 9.93
295 436 ALLARD KIMBERLEY SEF 26 00:32:35 06:03 9.92
296 313 CHARNEUX CHRISTOPHE V1H 38 00:32:35 06:03 9.92
297 595 SERVAIS LAURENCE V2F 11 00:32:37 06:03 9.91
298 439 LOUPPE PHILIPPE V3H 17 00:32:38 06:03 9.91
299 420 TOUILLAUX SASHA JEUF 22 00:32:40 06:04 9.90
300 348 DEBATY ALAIN V3H 18 00:32:40 06:04 9.90
301 39 DERENNE AMELIE SEF 27 00:32:44 06:04 9.88
302 103 SERVAIS TIA JEUF 23 00:32:47 06:05 9.86
303 7 GOFFLOT JULIE JEUF 24 00:32:47 06:05 9.86
304 305 MOREAU MARIE V1F 26 00:32:49 06:05 9.85
305 2013 DASNOY VANESSA SEF 28 00:32:54 06:06 9.83
306 59 COHY LUDOVIC V1H 39 00:32:55 06:06 9.82
307 125 MARQUIS LUDIVINE JEUF 25 00:32:57 06:07 9.81
308 567 DALIER TIMOTHEE SEH 94 00:32:57 06:07 9.81
309 195 HAAN SANDRINA V2F 12 00:33:01 06:08 9.79
310 448 JACQUEMIN ALAIN V2H 24 00:33:01 06:08 9.79
311 346 FRECON MARTINE V2F 13 00:33:15 06:10 9.72
312 561 XXX XXX   00:33:16 06:10 9.72
313 402 GRANDHENRY CHRISTELLE V2F 14 00:33:17 06:11 9.71
314 445 LOUIS GAELLE SEF 29 00:33:19 06:11 9.71
315 196 ZUNE FABRICE V2H 25 00:33:25 06:12 9.68
316 199 COLLIGNON DAVID SEH 95 00:33:27 06:12 9.67
317 597 THONON LAURENCE V2F 15 00:33:28 06:13 9.66
318 316 GODENIR EVA SEF 30 00:33:29 06:13 9.66
319 202 MARECHAL BASTIEN SEH 96 00:33:29 06:13 9.66
320 464 LAHIER CLAUDINE V3F 1 00:33:31 06:13 9.65
321 460 CASTIAUX AMANDA V1F 27 00:33:34 06:14 9.63
322 198 RAMPEL AUDREY SEF 31 00:33:46 06:16 9.58
323 378 VAN OOSTVELDT ROMAIN SEH 97 00:33:49 06:17 9.56
324 45 FROMENT SOPHIE JEUF 26 00:33:58 06:18 9.52
325 2048 SALINAS FLOR V1F 28 00:34:00 06:19 9.51
326 126 LEQUEUX AURIANE JEUF 27 00:34:01 06:19 9.51
327 87 VANDENDRIESSCHE LAURA SEF 32 00:34:03 06:19 9.50
328 600 WILLETTE JEAN-MICHEL V2H 26 00:34:12 06:21 9.45
329 197 DEPREZ MARTIN SEH 98 00:34:25 06:23 9.39
330 2008 BONNEVIE SOPHIE SEF 33 00:34:31 06:24 9.37
331 586 OLWI MARC SEH 99 00:34:32 06:24 9.36
332 2022 GARDIEN MARTINE V2F 16 00:34:32 06:24 9.36
333 13 STIERNON CÉLIA JEUF 28 00:34:35 06:25 9.35
334 12 BARETTE CLÉMENCE JEUF 29 00:34:39 06:26 9.33
335 589 PIETTE PASCAL V2H 27 00:34:39 06:26 9.33
336 22 MARÉCHAL EMY JEUF 30 00:34:39 06:26 9.33
337 90 ANDOUCHE OCEANE SEF 34 00:34:43 06:27 9.31
338 372 MAYOT CLARA JEUF 31 00:34:44 06:27 9.31
339 570 DEPAUW ALWIN V1H 40 00:34:45 06:27 9.30
340 23 GOUJARD EMELINE JEUF 32 00:34:47 06:27 9.30
341 377 LEFEBVRE ANDRE V2H 28 00:35:01 06:30 9.23
342 397 MESQUIN SULIVAN SEH 100 00:35:03 06:30 9.23
343 11 DEVILLERS MARIE-FRANCE V1F 29 00:35:04 06:30 9.22
344 6 MOREAU ZOÉ JEUF 33 00:35:06 06:31 9.21
345 592 RION EMILIE SEF 35 00:35:07 06:31 9.21
346 442 ANTOINE ANNE SOPHIE SEF 36 00:35:08 06:31 9.20
347 104 JACOB ELODIE SEF 37 00:35:09 06:31 9.20
348 571 FARINELLE FRANCOISE V2F 17 00:35:13 06:32 9.18
349 575 GODART CHARLINE SEF 38 00:35:14 06:32 9.18
350 41 GRÉGOIRE SUZANNE V1F 30 00:35:27 06:35 9.12
351 56 DISCOURS NATHALIE V2F 18 00:35:28 06:35 9.12
352 57 DISCOURS JEAN CLAUDE V3H 19 00:35:41 06:37 9.06
353 200 LAMOULINE CAMILLE SEF 39 00:35:52 06:39 9.02
354 201 LAMOULINE FLORENCE SEF 40 00:35:54 06:40 9.01
355 190 HERMAN ERIC V1H 41 00:36:02 06:41 8.97
356 171 LARZILLIERE AURORE V1F 31 00:36:02 06:41 8.97
357 193 HERMAN NATHAN JEUH 42 00:36:06 06:42 8.96
358 152 HAAGER INGRID V1F 32 00:36:33 06:47 8.85
359 117 PIERÇON SANDRA SEF 41 00:36:35 06:47 8.84
360 183 WILLIEME STÉPHANIE V1F 33 00:36:41 06:48 8.81
361 2036 LIBOIS FABIENNE V1F 34 00:36:44 06:49 8.80
362 404 POOS ANNE-SOPHIE V1F 35 00:36:49 06:50 8.78
363 459 GUILLAUME BENEDICTE V2F 19 00:36:50 06:50 8.78
364 562 AMATO CLARA JEUF 34 00:36:57 06:51 8.75
365 2111 FRANTZEN AURELIE SEF 42 00:37:21 06:56 8.66
366 165 ACTARUS GOLDORAQUE V2H 29 00:37:22 06:56 8.65
367 34 GUILLAUME ANSO V1F 36 00:37:27 06:57 8.63
368 124 BLONDELET MAELISS JEUF 35 00:38:06 07:04 8.49
369 2101 DE DECKER ARLETTE V3F 2 00:38:06 07:04 8.49
370 133 ANDREUX JULIETTE JEUF 36 00:38:07 07:04 8.48
371 454 JACQUES SABINE V2F 20 00:38:10 07:05 8.47
372 94 COLLIN ERIKA V1F 37 00:38:11 07:05 8.47
373 172 RAMSPACHER MÉLANIE V1F 38 00:38:12 07:05 8.46
374 132 MARTIN VICKY SEF 43 00:38:20 07:07 8.44
375 587 PARISSE FRANCOIS V1H 42 00:38:24 07:08 8.42
376 151 HUTLET CÉLINE SEF 44 00:38:29 07:08 8.40
377 599 VINCK FLEUR V1F 39 00:38:37 07:10 8.37
378 2007 BODART MARIE-HÉLÈNE V3F 3 00:38:39 07:10 8.37
379 342 COLLARD VINCIANE V2F 21 00:38:46 07:12 8.34
380 392 QUEVY LAURENCE V2F 22 00:38:58 07:14 8.30
381 343 STASSER FLORENCE SEF 45 00:39:02 07:15 8.28
382 2046 ROTH AURELIE SEF 46 00:39:08 07:16 8.26
383 594 ROULOT BERENICE SEF 47 00:39:30 07:20 8.19
384 417 LACOUQUE LAURE V1F 40 00:39:31 07:20 8.18
385 443 LEYDER STÉPHANIE SEF 48 00:39:32 07:20 8.18
386 407 LOBET SANDRA V3F 4 00:39:34 07:21 8.17
387 69 DESSOY JUSTINE SEF 49 00:39:36 07:21 8.17
388 207 IZQU ANNA SEF 50 00:39:39 07:21 8.15
389 80 HENRY ROBERT V3H 20 00:39:47 07:23 8.13
390 110 LOUIS ÉLOÏSE SEF 51 00:39:52 07:24 8.11
391 25 PIERRARD AMANDINE SEF 52 00:39:54 07:24 8.10
392 2014 DAUBY MATTY SEF 53 00:39:55 07:24 8.10
393 590 RENARD ANNE-FRANCOISE V2F 23 00:39:56 07:25 8.10
394 33 DELBROUCK CLAIRE JEUF 37 00:39:59 07:25 8.09
395 83 BACH SEBASTIEN V2H 30 00:39:59 07:25 8.09
396 9 ROISEUX LILOU JEUF 38 00:40:27 07:30 7.99
397 186 XXX XXX   00:40:28 07:31 7.99
398 53 CLARENNE MARIELLE V2F 24 00:40:28 07:31 7.99
399 449 MORISOD ROMANE SEF 54 00:40:29 07:31 7.99
400 184 KHELIFA MYRIAM SEF 55 00:40:29 07:31 7.99
401 349 QUOIRIN MANON SEF 56 00:40:29 07:31 7.99
402 139 CLAISSE NATHALIE V2F 25 00:40:31 07:31 7.98
403 112 CHAUVAUX IOANN V1H 43 00:40:34 07:32 7.97
404 169 LIBOIS MARTIN JEUH 43 00:40:38 07:32 7.96
405 113 CHAUVAUX LILY JEUF 39 00:40:42 07:33 7.94
406 563 BAILLEUX GAETAN V2H 31 00:40:43 07:33 7.94
407 569 DE BEIR CAROLINE V1F 41 00:40:43 07:33 7.94
408 166 BERTRAND PHILIPPE V1H 44 00:40:44 07:34 7.94
409 583 MONSEU CLARA SEF 57 00:40:49 07:34 7.92
410 115 KOROLEVA ELENA V1F 42 00:41:03 07:37 7.88
411 131 MORETTE LAETITIA SEF 58 00:41:06 07:38 7.87
412 99 PIERRARD EDDY V2H 32 00:41:07 07:38 7.86
413 163 RAMSPACHER MARIE-ANNE V3F 5 00:41:08 07:38 7.86
414 573 GANDEMA SAFI SEF 59 00:41:08 07:38 7.86
415 14 COUSET KATIA V3F 6 00:41:11 07:39 7.85
416 433 THIELTGEN KELLY SEF 60 00:41:13 07:39 7.84
417 327 JOHAN LAETITIA V1F 43 00:41:14 07:39 7.84
418 70 DESSOY NATHALIE V2F 26 00:41:34 07:43 7.78
419 155 KAN CAROLE V2F 27 00:41:39 07:44 7.76
420 185 LEONARD SARAH SEF 61 00:41:39 07:44 7.76
421 71 FECHEROLLE AUDREY SEF 62 00:41:45 07:45 7.74
422 358 DONCEEL SABRINA V1F 44 00:42:05 07:49 7.68
423 170 ANDOUCHE PAMÉLA V1F 45 00:42:09 07:49 7.67
424 116 LECLER MAXENCE JEUH 44 00:44:47 08:19 7.22
425 89 MARTENS ANDEAS V3H 21 00:44:57 08:20 7.19
426 419 VELGHE CHRISTIAN V2H 33 00:45:32 08:27 7.10
427 387 SIMON PASCALE V3F 7 00:45:32 08:27 7.10
428 389 SIMON PASCALE V3F 8 00:45:38 08:28 7.09
429 303 JEAN. CLAUDE V3H 22 00:45:43 08:29 7.07
430 72 TENEY PIERRE-YVES V1H 45 00:45:56 08:31 7.04
431 192 BRAUX MATHIEU SEH 101 00:51:30 09:33 6.28
432 191 DEPIENNE JULIEN SEH 102 00:51:31 09:34 6.28
433 167 DENIS PAULINE SEF 63 00:52:43 09:47 6.13
434 168 MERNIER HÉLÈNE SEF 64 00:52:46 09:47 6.13